Location: ??????
(38.1303°N, 24.0039°E)
Time: 05:40:50
(UTC+00:00)

COSMOS 2441 - Pass Details

Date: 20 June 2021
Orbit: 707 x 732 km, 98.1° (Epoch: 25 July)

Event Time Altitude Azimuth Distance (km) Brightness Sun altitude
Rises 01:24:30 0° 13° (NNE) 3,131 8.8 -15.5°
Reaches altitude 10° 01:26:47 10° 14° (NNE) 2,203 7.9 -15.2°
Maximum altitude 01:31:38 83° 102° (ESE) 722 4.4 -14.5°
Enters shadow 01:35:31 16° 191° (S) 1,819 6.0 -14.0°
